Wind_Speed
17 17 17 16 16 15 15 16 15 15 15 14 14 13 13 12 12 12 13 14 14 13 14 14 15 16 17 17 18 18 18 19 19 20 20 20 21 21 21 21 22 22 23
17 17 16 16 15 15 15 16 15 15 15 14 14 14 14 14 13 13 13 14 15 14 14 15 16 16 17 18 18 18 19 20 20 21 22 22 22 22 23 23 23 23 23
16 16 16 15 15 15 16 16 16 16 16 15 14 14 14 14 14 14 14 15 16 17 17 17 17 18 18 19 20 20 20 21 22 22 23 24 24 24 24 24 24 24 24
16 17 16 15 15 15 15 16 17 17 17 16 15 15 15 15 15 16 17 18 18 19 18 18 18 19 20 21 22 22 22 23 24 24 24 25 25 26 26 26 26 26 26
16 16 17 17 16 16 15 15 16 17 17 16 16 16 16 16 16 17 18 18 19 19 19 20 20 21 22 22 23 23 24 25 25 25 26 26 27 28 28 28 28 28 28
16 16 17 16 16 16 16 16 16 16 17 17 17 17 16 16 17 17 18 19 19 19 20 20 21 22 22 23 23 24 25 26 26 27 27 28 28 29 29 30 30 30 30
15 15 16 17 17 16 16 16 16 16 16 17 17 17 16 17 17 18 19 19 18 19 20 21 21 22 22 23 23 24 25 26 27 27 28 28 29 30 30 31 31 31 31
15 16 16 16 16 16 17 17 17 17 17 16 16 17 17 17 17 18 19 19 19 19 19 21 21 22 23 24 24 25 26 26 27 27 28 29 29 31 31 32 32 33 33
16 16 16 17 17 18 18 17 17 18 17 16 17 18 18 18 18 18 19 20 20 20 21 21 22 23 24 24 25 26 26 27 28 28 28 28 29 30 31 32 34 34 34
17 17 16 17 17 17 17 17 17 17 16 17 17 18 18 18 18 19 19 20 21 21 21 22 23 24 24 25 25 26 26 26 27 28 29 29 29 30 30 31 32 34 34
16 16 16 16 16 16 16 17 16 16 16 17 17 17 18 19 19 19 19 20 21 22 23 24 24 25 26 26 27 27 27 28 28 29 29 30 30 30 30 31 31 33 33
15 15 15 15 16 16 16 16 16 16 16 17 17 18 18 18 19 20 21 21 22 23 24 25 25 26 27 27 28 28 28 29 29 29 29 29 30 30 31 32 32 33 34
14 14 15 14 15 15 15 15 16 16 16 17 18 18 18 19 20 21 22 22 23 23 24 25 26 26 27 28 29 29 30 31 31 31 31 31 32 33 33 33 33 33 34
12 13 13 14 14 13 14 15 16 16 16 17 18 18 19 20 20 21 22 22 23 23 24 25 25 26 27 28 29 30 30 31 32 33 33 33 34 34 34 34 34 34 34
10 10 11 12 12 12 13 14 15 15 16 16 17 19 19 19 19 20 22 22 22 23 24 25 26 26 27 28 28 29 30 32 32 33 33 34 35 35 35 36 36 36 36
9 9 10 10 11 12 13 13 14 15 16 17 18 19 19 19 20 20 21 22 22 23 24 25 26 26 26 27 28 29 30 31 31 32 33 34 34 34 35 36 36 36 37
9 9 9 10 11 12 12 12 13 14 15 16 17 18 19 19 19 19 20 21 22 22 24 24 25 25 26 27 28 28 29 29 29 30 31 31 32 33 34 34 35 35 36
8 8 9 10 11 11 11 12 13 14 15 16 17 18 19 19 19 19 20 20 21 22 23 24 25 25 25 26 26 27 27 28 28 29 29 30 31 32 32 34 35 35 35
8 8 9 10 10 11 11 12 13 14 15 16 16 18 18 18 18 18 19 20 21 22 23 24 24 24 24 25 25 26 27 28 29 30 30 30 30 30 31 32 34 36 36
8 8 8 9 10 11 12 12 12 13 15 16 16 16 16 17 18 18 19 20 21 22 22 23 23 23 23 24 25 26 27 27 28 29 30 30 30 30 31 32 33 33 35
7 7 8 9 10 10 11 11 12 13 15 16 16 15 15 17 18 18 19 20 21 22 22 22 22 22 23 23 24 25 25 26 27 28 28 29 30 30 31 31 31 32 33
7 7 8 8 9 9 10 11 12 13 14 15 14 14 15 17 18 19 20 21 22 22 22 22 22 23 24 24 25 25 25 25 26 26 27 27 28 28 29 30 30 31 32
7 7 7 7 8 10 11 12 14 15 15 15 14 15 16 17 18 19 21 21 22 22 22 23 22 22 23 24 25 25 25 26 26 26 25 25 26 26 27 28 30 31 32
6 7 7 8 10 12 13 15 15 15 16 16 16 16 17 17 18 20 21 21 21 22 22 22 23 23 23 23 24 24 24 24 24 25 24 24 24 24 25 26 28 30 31
7 8 9 10 12 13 14 15 15 16 17 17 16 16 17 18 18 19 20 21 22 22 22 22 22 23 23 23 24 24 24 24 23 23 23 22 22 23 23 24 25 27 28
8 9 10 12 13 14 15 15 16 16 16 17 17 16 16 17 18 19 20 21 22 22 22 22 22 23 23 23 23 23 24 24 23 23 23 23 23 23 22 23 25 25 26
Wind_Direction
272 272 271 269 268 265 262 264 265 267 266 265 271 274 273 273 273 272 276 274 269 265 264 262 261 260 258 256 258 259 258 257 257 257 257 257 256 255 255 255 254 251 249
271 270 272 271 272 267 262 263 264 266 263 263 267 272 271 271 271 271 273 272 271 269 267 267 265 263 261 261 260 260 260 259 258 259 259 257 256 255 256 255 254 252 249
274 269 267 266 269 268 264 263 263 264 263 263 265 270 270 268 272 271 271 272 272 271 269 269 268 265 265 264 264 262 262 261 259 259 259 258 257 256 256 255 254 253 251
271 265 264 263 266 267 265 264 265 265 263 262 266 270 269 268 268 271 272 271 270 269 269 268 267 266 266 264 264 263 263 263 261 261 260 259 259 258 256 255 254 254 253
269 265 262 261 263 266 266 267 267 266 264 264 265 268 269 271 271 273 273 272 271 268 268 267 268 269 267 266 265 264 263 262 262 261 260 260 260 258 256 255 255 255 255
270 268 263 260 261 265 266 264 268 267 266 265 265 267 268 273 274 273 272 273 274 271 271 270 270 269 269 268 267 267 266 266 265 263 261 261 261 259 257 255 255 255 255
275 273 264 261 263 265 264 267 268 268 266 267 267 269 271 273 274 273 273 272 275 276 275 274 271 270 269 269 269 269 269 268 267 266 264 263 261 258 257 256 255 254 255
279 277 270 263 261 262 265 268 270 265 267 267 268 269 270 271 273 273 274 276 276 277 277 276 273 272 272 272 271 270 270 269 269 268 267 265 263 260 258 256 255 254 254
281 278 273 270 266 265 265 267 268 268 265 267 269 271 271 271 273 272 273 275 277 277 278 277 276 275 274 274 274 274 273 272 270 268 268 266 264 262 261 259 256 255 254
279 276 273 272 265 264 263 264 267 269 266 267 271 273 273 275 277 278 275 276 278 279 278 276 275 276 277 277 275 275 274 273 272 269 267 265 264 262 261 260 257 256 255
279 277 274 272 267 266 267 266 267 269 270 270 272 275 277 278 279 281 279 279 280 280 280 280 280 279 278 276 273 273 273 273 274 272 269 267 266 265 263 261 260 258 257
279 278 277 272 269 268 269 270 268 269 272 273 273 275 278 279 279 281 283 281 280 281 282 282 282 281 279 277 274 272 272 273 274 272 270 268 267 266 265 263 262 261 258
280 276 275 271 272 271 269 270 270 271 273 276 275 276 280 281 282 284 286 284 282 282 284 285 284 281 279 277 276 274 272 272 272 271 269 268 267 265 264 262 261 260 259
279 275 274 272 273 274 273 272 273 275 276 277 277 279 282 284 286 287 289 290 287 285 286 288 288 284 281 279 277 275 275 274 273 271 269 268 267 266 264 262 260 259 259
282 278 275 274 275 277 277 278 277 276 277 280 282 282 286 287 289 291 291 292 291 289 290 292 290 287 285 284 281 277 277 276 275 273 270 269 267 266 264 263 262 259 257
282 281 278 280 281 281 281 281 279 278 278 281 284 284 288 291 292 293 293 292 293 293 292 293 293 291 289 288 284 280 280 279 276 274 273 272 270 268 266 264 262 259 257
283 284 284 285 287 287 284 283 283 281 281 283 285 288 291 293 292 293 293 293 295 296 296 296 294 292 291 290 288 285 283 284 282 279 278 275 273 271 268 264 263 261 258
287 284 286 288 290 288 286 287 290 288 287 287 289 292 293 292 293 293 294 295 297 299 299 299 297 293 290 290 290 288 287 286 285 282 280 276 275 272 268 266 264 262 260
290 289 289 291 294 298 295 294 295 295 294 294 295 296 294 295 297 297 298 299 301 301 301 301 299 297 295 294 293 291 290 290 288 285 281 280 278 275 271 268 265 262 261
293 293 297 299 303 305 304 298 299 300 302 302 301 300 299 299 300 300 302 303 303 303 303 303 302 300 299 296 294 293 293 292 289 287 284 282 279 275 273 271 268 264 261
304 301 299 306 313 312 307 303 304 306 306 305 305 303 302 303 303 304 305 306 305 304 305 305 302 302 302 300 298 298 297 295 293 291 287 284 281 278 274 271 269 266 264
305 302 305 309 316 319 313 308 310 312 312 312 310 306 304 304 304 305 306 307 306 306 306 306 305 304 304 304 303 302 303 300 297 294 291 289 286 283 279 276 272 269 267
307 308 313 320 325 326 324 318 316 318 318 317 315 310 308 306 305 308 307 308 308 309 308 307 307 307 306 306 306 305 304 303 301 299 296 293 290 287 282 277 274 272 269
315 318 320 319 319 320 318 317 318 320 319 318 315 311 308 308 309 310 309 309 310 311 309 308 308 308 309 309 309 309 309 308 305 303 300 298 295 291 288 284 279 275 272
320 319 319 317 318 319 319 321 322 322 322 320 315 313 312 311 312 313 314 315 315 313 312 310 310 310 311 312 311 311 311 313 311 308 305 302 301 298 294 290 286 279 275
320 319 320 318 318 321 323 324 323 322 323 322 319 316 316 316 315 315 317 319 318 316 315 314 314 315 314 314 314 314 313 313 314 311 308 306 305 303 299 294 291 285 279
Height
5844 5844 5844 5843 5843 5842 5843 5843 5842 5842 5842 5842 5841 5841 5840 5840 5839 5839 5838 5838 5838 5837 5837 5837 5837 5837 5837 5837 5838 5838 5838 5838 5839 5839 5840 5840 5841 5841 5842 5842 5843 5844 5844
5839 5839 5839 5838 5838 5838 5838 5839 5839 5839 5838 5838 5838 5838 5837 5837 5836 5836 5835 5834 5834 5834 5833 5833 5833 5833 5833 5833 5833 5833 5833 5834 5834 5834 5835 5835 5835 5836 5836 5837 5837 5838 5839
5835 5835 5834 5834 5834 5834 5834 5834 5835 5835 5835 5835 5834 5834 5833 5833 5833 5832 5831 5831 5831 5830 5830 5829 5829 5829 5829 5829 5829 5829 5828 5828 5828 5829 5829 5829 5830 5830 5830 5831 5832 5832 5833
5829 5830 5830 5830 5830 5830 5830 5830 5830 5830 5831 5830 5830 5830 5830 5829 5829 5828 5828 5827 5826 5826 5826 5825 5825 5824 5824 5824 5824 5823 5823 5823 5823 5823 5823 5823 5823 5824 5824 5825 5825 5826 5827
5825 5825 5825 5825 5826 5826 5826 5826 5825 5826 5826 5826 5826 5826 5826 5825 5825 5824 5823 5822 5822 5821 5821 5820 5820 5819 5819 5818 5818 5818 5817 5817 5817 5817 5817 5817 5817 5817 5817 5818 5819 5820 5821
5821 5821 5821 5821 5821 5821 5821 5822 5822 5821 5821 5821 5821 5821 5821 5820 5820 5819 5819 5818 5817 5816 5816 5815 5814 5814 5813 5813 5812 5812 5811 5811 5810 5810 5810 5810 5810 5810 5810 5811 5812 5813 5814
5816 5816 5816 5816 5816 5816 5816 5816 5817 5817 5817 5816 5816 5816 5816 5816 5815 5815 5814 5813 5812 5811 5810 5809 5808 5808 5807 5807 5806 5805 5805 5804 5804 5803 5803 5802 5802 5802 5803 5803 5804 5805 5806
5812 5812 5811 5811 5811 5811 5811 5811 5812 5812 5812 5811 5811 5811 5811 5812 5811 5810 5809 5808 5807 5806 5805 5804 5803 5802 5801 5800 5799 5798 5797 5797 5796 5795 5795 5795 5794 5794 5795 5795 5796 5797 5798
5807 5807 5806 5806 5806 5806 5806 5807 5807 5806 5806 5806 5807 5807 5806 5806 5806 5806 5804 5803 5802 5801 5799 5798 5797 5796 5795 5794 5793 5791 5790 5789 5788 5788 5787 5786 5786 5786 5786 5786 5787 5788 5789
5803 5802 5801 5801 5801 5801 5801 5802 5802 5802 5802 5802 5802 5802 5802 5801 5801 5800 5799 5798 5796 5795 5794 5792 5791 5790 5788 5786 5785 5784 5783 5782 5780 5779 5779 5778 5777 5777 5777 5777 5778 5778 5780
5798 5797 5797 5797 5796 5796 5797 5797 5797 5797 5798 5798 5797 5797 5796 5796 5795 5794 5793 5792 5791 5789 5788 5786 5784 5782 5780 5779 5778 5777 5775 5774 5772 5771 5770 5769 5769 5768 5768 5768 5768 5769 5770
5793 5793 5792 5792 5792 5792 5793 5793 5793 5793 5793 5793 5793 5792 5791 5790 5790 5789 5787 5786 5785 5783 5780 5778 5777 5774 5772 5771 5769 5768 5767 5766 5764 5763 5761 5760 5760 5759 5759 5759 5759 5760 5760
5789 5789 5788 5788 5788 5788 5788 5789 5789 5789 5788 5788 5788 5787 5786 5784 5783 5782 5781 5779 5778 5776 5773 5771 5769 5767 5764 5762 5761 5759 5758 5757 5755 5753 5752 5751 5750 5750 5750 5750 5750 5750 5751
5786 5785 5785 5784 5784 5784 5784 5784 5784 5784 5784 5783 5782 5781 5780 5779 5777 5775 5774 5772 5771 5769 5766 5764 5761 5759 5756 5754 5752 5750 5749 5747 5745 5744 5742 5741 5740 5739 5739 5739 5740 5740 5741
5782 5782 5782 5781 5781 5781 5780 5780 5780 5779 5779 5778 5777 5776 5774 5772 5771 5769 5767 5765 5764 5761 5759 5757 5753 5751 5748 5746 5743 5741 5739 5737 5735 5733 5731 5730 5729 5729 5728 5728 5729 5729 5730
5780 5779 5779 5778 5778 5777 5777 5776 5775 5775 5774 5773 5772 5770 5768 5767 5765 5763 5760 5759 5756 5754 5752 5749 5745 5742 5739 5736 5734 5731 5729 5727 5725 5723 5721 5719 5718 5717 5717 5717 5717 5718 5719
5777 5777 5776 5776 5775 5774 5773 5772 5771 5770 5769 5768 5766 5764 5763 5760 5758 5756 5754 5752 5749 5747 5744 5741 5737 5734 5731 5727 5724 5722 5719 5717 5715 5713 5711 5709 5707 5706 5706 5706 5706 5707 5708
5775 5774 5774 5773 5771 5770 5769 5768 5767 5766 5765 5763 5761 5759 5757 5754 5752 5750 5748 5745 5742 5739 5737 5733 5730 5726 5723 5719 5716 5713 5710 5708 5705 5703 5701 5699 5697 5696 5695 5695 5695 5696 5696
5772 5772 5771 5770 5769 5767 5766 5764 5763 5762 5760 5758 5756 5754 5751 5749 5747 5744 5742 5739 5736 5732 5729 5726 5722 5718 5715 5711 5708 5705 5702 5699 5697 5694 5691 5689 5687 5685 5685 5684 5684 5685 5685
5770 5770 5769 5767 5766 5765 5763 5761 5760 5758 5756 5753 5751 5749 5746 5744 5741 5739 5736 5733 5729 5726 5722 5718 5715 5711 5708 5704 5701 5698 5695 5691 5688 5685 5682 5679 5677 5676 5675 5674 5674 5674 5674
5769 5768 5766 5765 5764 5762 5760 5758 5756 5754 5752 5749 5746 5743 5741 5739 5736 5733 5730 5727 5723 5720 5716 5712 5708 5705 5701 5698 5694 5691 5687 5683 5680 5676 5673 5670 5668 5667 5665 5664 5663 5663 5663
5767 5766 5765 5763 5762 5760 5758 5755 5753 5751 5748 5745 5742 5739 5736 5734 5731 5727 5724 5721 5717 5714 5710 5706 5702 5698 5694 5691 5687 5683 5679 5676 5673 5669 5665 5662 5659 5657 5655 5654 5653 5653 5652
5766 5764 5763 5761 5759 5757 5755 5752 5750 5747 5744 5741 5737 5734 5731 5728 5726 5722 5719 5715 5711 5707 5704 5700 5696 5692 5688 5684 5681 5677 5672 5668 5664 5660 5657 5654 5651 5649 5646 5645 5643 5642 5642
5764 5763 5761 5759 5757 5755 5753 5750 5747 5743 5740 5737 5733 5730 5727 5724 5721 5717 5714 5710 5706 5702 5697 5694 5690 5686 5681 5678 5674 5669 5665 5661 5657 5653 5649 5647 5643 5641 5638 5636 5634 5633 5632
5763 5761 5759 5757 5755 5752 5750 5746 5743 5740 5736 5733 5729 5726 5722 5719 5716 5712 5709 5705 5700 5696 5691 5687 5683 5679 5675 5671 5667 5662 5658 5654 5651 5646 5643 5640 5637 5634 5631 5628 5626 5624 5623
5761 5759 5757 5755 5752 5749 5746 5743 5740 5736 5733 5729 5725 5722 5718 5715 5711 5707 5703 5699 5695 5690 5686 5682 5678 5673 5669 5665 5661 5656 5652 5648 5645 5641 5637 5634 5631 5627 5625 5622 5619 5616 5614